This is the latest recevied weather packets stored in our database for station/object KD5UIG. If no packets are shown the sender has not sent any weather packets the latest 10 day(s).
| Time | Temp. | Humidity | Pressure | Rain* | Wind** | Luminosity | Snow |
|---|---|---|---|---|---|---|---|
| 1777605360 | 16.11° C | 79% | 1015.9 hPa | 0 mm | - | 0 W/m² | - |
| 1777605055 | 16.11° C | 78% | 1015.9 hPa | 0 mm | - | 0 W/m² | - |
| 1777604755 | 16.11° C | 78% | 1015.9 hPa | 0 mm | - | 0 W/m² | - |
| 1777601774 | 16.67° C | 77% | 1014.8 hPa | 0 mm | - | 0 W/m² | - |
| 1777599958 | 16.67° C | 76% | 1015.2 hPa | 0 mm | - | 0 W/m² | - |
| 1777599055 | 16.67° C | 75% | 1014.5 hPa | 0 mm | - | 0 W/m² | - |
| 1777598456 | 17.22° C | 74% | 1014.4 hPa | 0 mm | - | 0 W/m² | - |
| 1777594857 | 17.22° C | 71% | 1014 hPa | 0 mm | - | 16 W/m² | - |
| 1777594559 | 17.78° C | 71% | 1013.8 hPa | 0 mm | - | 19 W/m² | - |
| 1777592154 | 17.78° C | 69% | 1013.8 hPa | 0 mm | - | 42 W/m² | - |
| 1777591555 | 17.78° C | 68% | 1013.6 hPa | 0 mm | - | 72 W/m² | - |
| 1777591255 | 17.78° C | 68% | 1013.4 hPa | 0 mm | - | 102 W/m² | - |
| 1777589755 | 17.78° C | 69% | 1013.4 hPa | 0 mm | - | 79 W/m² | - |
| 1777587055 | 18.33° C | 69% | 1013.7 hPa | 0 mm | - | 151 W/m² | - |
| 1777585854 | 18.33° C | 70% | 1013.6 hPa | 0 mm | - | 165 W/m² | - |
| 1777583455 | 17.78° C | 70% | 1014.1 hPa | 0 mm | - | 91 W/m² | - |
| 1777582858 | 17.78° C | 70% | 1014 hPa | 0 mm | - | 105 W/m² | - |
| 1777582256 | 17.78° C | 69% | 1013.6 hPa | 0 mm | - | 142 W/m² | - |
| 1777581953 | 17.78° C | 70% | 1013.6 hPa | 0 mm | - | 137 W/m² | - |
| 1777580455 | 17.78° C | 69% | 1014 hPa | 0 mm | - | 105 W/m² | - |
| 1777579254 | 18.33° C | 69% | 1013.9 hPa | 0 mm | - | 160 W/m² | - |
| 1777577155 | 17.78° C | 68% | 1014 hPa | 0 mm | - | 149 W/m² | - |
| 1777576855 | 18.33° C | 69% | 1013.9 hPa | 0 mm | - | 113 W/m² | - |
| 1777576556 | 18.33° C | 68% | 1014 hPa | 0 mm | - | 116 W/m² | - |
| 1777575653 | 18.33° C | 70% | 1014.1 hPa | 0 mm | - | 413 W/m² | - |
* Rain latest hour (hover to see other rain measurements)
** Current wind speed in m/s (hover to see current wind gust speed)